owner,sensor,date,latitude,longitude,relative_humidity,qcFlag 
DISL,ioos:station:DISL:BSCA:1,2011-12-01T00:00:00Z,30.3288,-87.8293,61.74,1111122 
DISL,ioos:station:DISL:BSCA:1,2011-12-01T00:30:00Z,30.3288,-87.8293,64.36,1111122 
DISL,ioos:station:DISL:BSCA:1,2011-12-01T01:00:00Z,30.3288,-87.8293,66.92,1111122 
DISL,ioos:station:DISL:BSCA:1,2011-12-01T01:30:00Z,30.3288,-87.8293,64.57,1111122 
DISL,ioos:station:DISL:BSCA:1,2011-12-01T02:00:00Z,30.3288,-87.8293,59.86,1111122 
DISL,ioos:station:DISL:BSCA:1,2011-12-01T02:30:00Z,30.3288,-87.8293,60.09,1111122 
DISL,ioos:station:DISL:BSCA:1,2011-12-01T03:00:00Z,30.3288,-87.8293,61.15,1111122 
DISL,ioos:station:DISL:BSCA:1,2011-12-01T03:30:00Z,30.3288,-87.8293,61.66,1111122 
DISL,ioos:station:DISL:BSCA:1,2011-12-01T04:00:00Z,30.3288,-87.8293,60.3,1111122 
DISL,ioos:station:DISL:BSCA:1,2011-12-01T04:30:00Z,30.3288,-87.8293,59.96,1111122 
DISL,ioos:station:DISL:BSCA:1,2011-12-01T05:00:00Z,30.3288,-87.8293,63.74,1111122 
DISL,ioos:station:DISL:BSCA:1,2011-12-01T05:30:00Z,30.3288,-87.8293,65.1,1111122 
DISL,ioos:station:DISL:BSCA:1,2011-12-01T06:00:00Z,30.3288,-87.8293,68.7,1111122 
DISL,ioos:station:DISL:BSCA:1,2011-12-01T06:30:00Z,30.3288,-87.8293,69.96,1111122 
DISL,ioos:station:DISL:BSCA:1,2011-12-01T07:00:00Z,30.3288,-87.8293,73.66,1111122 
DISL,ioos:station:DISL:BSCA:1,2011-12-01T07:30:00Z,30.3288,-87.8293,75.02,1111122 
DISL,ioos:station:DISL:BSCA:1,2011-12-01T08:00:00Z,30.3288,-87.8293,74.31,1111122 
DISL,ioos:station:DISL:BSCA:1,2011-12-01T08:30:00Z,30.3288,-87.8293,76.18,1111122 
DISL,ioos:station:DISL:BSCA:1,2011-12-01T09:00:00Z,30.3288,-87.8293,77.13,1111122 
DISL,ioos:station:DISL:BSCA:1,2011-12-01T09:30:00Z,30.3288,-87.8293,74.69,1111122 
DISL,ioos:station:DISL:BSCA:1,2011-12-01T10:00:00Z,30.3288,-87.8293,80.9,1111122 
DISL,ioos:station:DISL:BSCA:1,2011-12-01T10:30:00Z,30.3288,-87.8293,80.6,1111122 
DISL,ioos:station:DISL:BSCA:1,2011-12-01T11:00:00Z,30.3288,-87.8293,78.1,1111122 
DISL,ioos:station:DISL:BSCA:1,2011-12-01T11:30:00Z,30.3288,-87.8293,78.06,1111122 
DISL,ioos:station:DISL:BSCA:1,2011-12-01T12:00:00Z,30.3288,-87.8293,79.35,1111122 
DISL,ioos:station:DISL:BSCA:1,2011-12-01T12:30:00Z,30.3288,-87.8293,81.2,1111122 
DISL,ioos:station:DISL:BSCA:1,2011-12-01T13:00:00Z,30.3288,-87.8293,80.3,1111122 
DISL,ioos:station:DISL:BSCA:1,2011-12-01T13:30:00Z,30.3288,-87.8293,77.11,1111122 
DISL,ioos:station:DISL:BSCA:1,2011-12-01T14:00:00Z,30.3288,-87.8293,77.27,1111122 
DISL,ioos:station:DISL:BSCA:1,2011-12-01T14:30:00Z,30.3288,-87.8293,73.76,1111122 
DISL,ioos:station:DISL:BSCA:1,2011-12-01T15:00:00Z,30.3288,-87.8293,71.15,1111122 
DISL,ioos:station:DISL:BSCA:1,2011-12-01T15:30:00Z,30.3288,-87.8293,71.3,1111122 
DISL,ioos:station:DISL:BSCA:1,2011-12-01T16:00:00Z,30.3288,-87.8293,60.43,1111122 
DISL,ioos:station:DISL:BSCA:1,2011-12-01T16:30:00Z,30.3288,-87.8293,59.72,1111122 
DISL,ioos:station:DISL:BSCA:1,2011-12-01T17:00:00Z,30.3288,-87.8293,57.6,1111122 
DISL,ioos:station:DISL:BSCA:1,2011-12-01T17:30:00Z,30.3288,-87.8293,55.09,1111122 
DISL,ioos:station:DISL:BSCA:1,2011-12-01T18:00:00Z,30.3288,-87.8293,58.19,1111122 
DISL,ioos:station:DISL:BSCA:1,2011-12-01T18:30:00Z,30.3288,-87.8293,56.9,1111122 
DISL,ioos:station:DISL:BSCA:1,2011-12-01T19:00:00Z,30.3288,-87.8293,66.19,1111122 
DISL,ioos:station:DISL:BSCA:1,2011-12-01T19:30:00Z,30.3288,-87.8293,67.41,1111122 
DISL,ioos:station:DISL:BSCA:1,2011-12-01T20:00:00Z,30.3288,-87.8293,66.56,1111122 
DISL,ioos:station:DISL:BSCA:1,2011-12-01T20:30:00Z,30.3288,-87.8293,68.87,1111122 
DISL,ioos:station:DISL:BSCA:1,2011-12-01T21:00:00Z,30.3288,-87.8293,65.89,1111122 
DISL,ioos:station:DISL:BSCA:1,2011-12-01T21:30:00Z,30.3288,-87.8293,66.06,1111122 
DISL,ioos:station:DISL:BSCA:1,2011-12-01T22:00:00Z,30.3288,-87.8293,64.73,1111122 
DISL,ioos:station:DISL:BSCA:1,2011-12-01T22:30:00Z,30.3288,-87.8293,60.12,1111122 
DISL,ioos:station:DISL:BSCA:1,2011-12-01T23:00:00Z,30.3288,-87.8293,69.41,1111122 
DISL,ioos:station:DISL:BSCA:1,2011-12-01T23:30:00Z,30.3288,-87.8293,67.3,1111122 
DISL,ioos:station:DISL:BSCA:1,2011-12-02T00:00:00Z,30.3288,-87.8293,69.54,1111122 
DISL,ioos:station:DISL:BSCA:1,2011-12-02T00:30:00Z,30.3288,-87.8293,70.15,1111122 
DISL,ioos:station:DISL:BSCA:1,2011-12-02T01:00:00Z,30.3288,-87.8293,72.63,1111122 
DISL,ioos:station:DISL:BSCA:1,2011-12-02T01:30:00Z,30.3288,-87.8293,86.6,1111122 
DISL,ioos:station:DISL:BSCA:1,2011-12-02T02:00:00Z,30.3288,-87.8293,89.2,1111122 
DISL,ioos:station:DISL:BSCA:1,2011-12-02T02:30:00Z,30.3288,-87.8293,91.2,1111122 
DISL,ioos:station:DISL:BSCA:1,2011-12-02T03:00:00Z,30.3288,-87.8293,91.2,1111122 
DISL,ioos:station:DISL:BSCA:1,2011-12-02T03:30:00Z,30.3288,-87.8293,88.7,1111122 
DISL,ioos:station:DISL:BSCA:1,2011-12-02T04:00:00Z,30.3288,-87.8293,85.3,1111122 
DISL,ioos:station:DISL:BSCA:1,2011-12-02T04:30:00Z,30.3288,-87.8293,83.3,1111122 
DISL,ioos:station:DISL:BSCA:1,2011-12-02T05:00:00Z,30.3288,-87.8293,80.2,1111122 
DISL,ioos:station:DISL:BSCA:1,2011-12-02T05:30:00Z,30.3288,-87.8293,77.27,1111122 
DISL,ioos:station:DISL:BSCA:1,2011-12-02T06:00:00Z,30.3288,-87.8293,77.01,1111122 
DISL,ioos:station:DISL:BSCA:1,2011-12-02T06:30:00Z,30.3288,-87.8293,72.5,1111122 
DISL,ioos:station:DISL:BSCA:1,2011-12-02T07:00:00Z,30.3288,-87.8293,75.75,1111122 
DISL,ioos:station:DISL:BSCA:1,2011-12-02T07:30:00Z,30.3288,-87.8293,69.54,1111122 
DISL,ioos:station:DISL:BSCA:1,2011-12-02T08:00:00Z,30.3288,-87.8293,69.94,1111122 
DISL,ioos:station:DISL:BSCA:1,2011-12-02T08:30:00Z,30.3288,-87.8293,70.38,1111122 
DISL,ioos:station:DISL:BSCA:1,2011-12-02T09:00:00Z,30.3288,-87.8293,69.6,1111122 
DISL,ioos:station:DISL:BSCA:1,2011-12-02T09:30:00Z,30.3288,-87.8293,71.46,1111122 
DISL,ioos:station:DISL:BSCA:1,2011-12-02T10:00:00Z,30.3288,-87.8293,71.23,1111122 
DISL,ioos:station:DISL:BSCA:1,2011-12-02T10:30:00Z,30.3288,-87.8293,70.17,1111122 
DISL,ioos:station:DISL:BSCA:1,2011-12-02T11:00:00Z,30.3288,-87.8293,72.99,1111122 
DISL,ioos:station:DISL:BSCA:1,2011-12-02T11:30:00Z,30.3288,-87.8293,75.26,1111122 
DISL,ioos:station:DISL:BSCA:1,2011-12-02T12:00:00Z,30.3288,-87.8293,73.81,1111122 
DISL,ioos:station:DISL:BSCA:1,2011-12-02T12:30:00Z,30.3288,-87.8293,74.59,1111122 
DISL,ioos:station:DISL:BSCA:1,2011-12-02T13:00:00Z,30.3288,-87.8293,75.58,1111122 
DISL,ioos:station:DISL:BSCA:1,2011-12-02T13:30:00Z,30.3288,-87.8293,74.35,1111122 
DISL,ioos:station:DISL:BSCA:1,2011-12-02T14:00:00Z,30.3288,-87.8293,71.8,1111122 
DISL,ioos:station:DISL:BSCA:1,2011-12-02T14:30:00Z,30.3288,-87.8293,69.79,1111122 
DISL,ioos:station:DISL:BSCA:1,2011-12-02T15:00:00Z,30.3288,-87.8293,68.18,1111122 
DISL,ioos:station:DISL:BSCA:1,2011-12-02T15:30:00Z,30.3288,-87.8293,64.04,1111122 
DISL,ioos:station:DISL:BSCA:1,2011-12-02T16:00:00Z,30.3288,-87.8293,65.96,1111122 
DISL,ioos:station:DISL:BSCA:1,2011-12-02T16:30:00Z,30.3288,-87.8293,63.31,1111122 
DISL,ioos:station:DISL:BSCA:1,2011-12-02T17:00:00Z,30.3288,-87.8293,63.46,1111122 
DISL,ioos:station:DISL:BSCA:1,2011-12-02T17:30:00Z,30.3288,-87.8293,62.58,1111122 
DISL,ioos:station:DISL:BSCA:1,2011-12-02T18:00:00Z,30.3288,-87.8293,63.76,1111122 
DISL,ioos:station:DISL:BSCA:1,2011-12-02T18:30:00Z,30.3288,-87.8293,62.51,1111122 
DISL,ioos:station:DISL:BSCA:1,2011-12-02T19:00:00Z,30.3288,-87.8293,57.15,1111122 
DISL,ioos:station:DISL:BSCA:1,2011-12-02T19:30:00Z,30.3288,-87.8293,53.41,1111122 
DISL,ioos:station:DISL:BSCA:1,2011-12-02T20:00:00Z,30.3288,-87.8293,54.35,1111122 
DISL,ioos:station:DISL:BSCA:1,2011-12-02T20:30:00Z,30.3288,-87.8293,55.13,1111122 
DISL,ioos:station:DISL:BSCA:1,2011-12-02T21:00:00Z,30.3288,-87.8293,67.92,1111122 
DISL,ioos:station:DISL:BSCA:1,2011-12-02T21:30:00Z,30.3288,-87.8293,74.37,1111122 
DISL,ioos:station:DISL:BSCA:1,2011-12-02T22:00:00Z,30.3288,-87.8293,75.66,1111122 
DISL,ioos:station:DISL:BSCA:1,2011-12-02T22:30:00Z,30.3288,-87.8293,76.44,1111122 
DISL,ioos:station:DISL:BSCA:1,2011-12-02T23:00:00Z,30.3288,-87.8293,76.42,1111122 
DISL,ioos:station:DISL:BSCA:1,2011-12-02T23:30:00Z,30.3288,-87.8293,80.5,1111122 
DISL,ioos:station:DISL:BSCA:1,2011-12-03T00:00:00Z,30.3288,-87.8293,79.32,1111122 
DISL,ioos:station:DISL:BSCA:1,2011-12-03T00:30:00Z,30.3288,-87.8293,78.06,1111122 
DISL,ioos:station:DISL:BSCA:1,2011-12-03T01:00:00Z,30.3288,-87.8293,75.27,1111122 
DISL,ioos:station:DISL:BSCA:1,2011-12-03T01:30:00Z,30.3288,-87.8293,73.24,1111122 
DISL,ioos:station:DISL:BSCA:1,2011-12-03T02:00:00Z,30.3288,-87.8293,78.46,1111122 
DISL,ioos:station:DISL:BSCA:1,2011-12-03T02:30:00Z,30.3288,-87.8293,80.7,1111122 
DISL,ioos:station:DISL:BSCA:1,2011-12-03T03:00:00Z,30.3288,-87.8293,84.7,1111122 
DISL,ioos:station:DISL:BSCA:1,2011-12-03T03:30:00Z,30.3288,-87.8293,85.0,1111122 
DISL,ioos:station:DISL:BSCA:1,2011-12-03T04:00:00Z,30.3288,-87.8293,80.7,1111122 
DISL,ioos:station:DISL:BSCA:1,2011-12-03T04:30:00Z,30.3288,-87.8293,81.5,1111122 
DISL,ioos:station:DISL:BSCA:1,2011-12-03T05:00:00Z,30.3288,-87.8293,82.7,1111122 
DISL,ioos:station:DISL:BSCA:1,2011-12-03T05:30:00Z,30.3288,-87.8293,81.1,1111122 
DISL,ioos:station:DISL:BSCA:1,2011-12-03T06:00:00Z,30.3288,-87.8293,78.9,1111122 
DISL,ioos:station:DISL:BSCA:1,2011-12-03T06:30:00Z,30.3288,-87.8293,77.0,1111122 
DISL,ioos:station:DISL:BSCA:1,2011-12-03T07:00:00Z,30.3288,-87.8293,73.2,1111122 
DISL,ioos:station:DISL:BSCA:1,2011-12-03T07:30:00Z,30.3288,-87.8293,72.46,1111122 
DISL,ioos:station:DISL:BSCA:1,2011-12-03T08:00:00Z,30.3288,-87.8293,69.88,1111122 
DISL,ioos:station:DISL:BSCA:1,2011-12-03T08:30:00Z,30.3288,-87.8293,68.83,1111122 
DISL,ioos:station:DISL:BSCA:1,2011-12-03T09:00:00Z,30.3288,-87.8293,68.18,1111122 
DISL,ioos:station:DISL:BSCA:1,2011-12-03T09:30:00Z,30.3288,-87.8293,67.13,1111122 
DISL,ioos:station:DISL:BSCA:1,2011-12-03T10:00:00Z,30.3288,-87.8293,68.28,1111122 
DISL,ioos:station:DISL:BSCA:1,2011-12-03T10:30:00Z,30.3288,-87.8293,68.96,1111122 
DISL,ioos:station:DISL:BSCA:1,2011-12-03T11:00:00Z,30.3288,-87.8293,67.57,1111122 
DISL,ioos:station:DISL:BSCA:1,2011-12-03T11:30:00Z,30.3288,-87.8293,65.81,1111122 
DISL,ioos:station:DISL:BSCA:1,2011-12-03T12:00:00Z,30.3288,-87.8293,69.74,1111122 
DISL,ioos:station:DISL:BSCA:1,2011-12-03T12:30:00Z,30.3288,-87.8293,70.01,1111122 
DISL,ioos:station:DISL:BSCA:1,2011-12-03T13:00:00Z,30.3288,-87.8293,72.36,1111122 
DISL,ioos:station:DISL:BSCA:1,2011-12-03T13:30:00Z,30.3288,-87.8293,72.97,1111122 
DISL,ioos:station:DISL:BSCA:1,2011-12-03T14:00:00Z,30.3288,-87.8293,73.74,1111122 
DISL,ioos:station:DISL:BSCA:1,2011-12-03T14:30:00Z,30.3288,-87.8293,74.22,1111122 
DISL,ioos:station:DISL:BSCA:1,2011-12-03T15:00:00Z,30.3288,-87.8293,74.15,1111122 
DISL,ioos:station:DISL:BSCA:1,2011-12-03T15:30:00Z,30.3288,-87.8293,73.55,1111122 
DISL,ioos:station:DISL:BSCA:1,2011-12-03T16:00:00Z,30.3288,-87.8293,71.89,1111122 
DISL,ioos:station:DISL:BSCA:1,2011-12-03T16:30:00Z,30.3288,-87.8293,72.61,1111122 
DISL,ioos:station:DISL:BSCA:1,2011-12-03T17:00:00Z,30.3288,-87.8293,71.53,1111122 
DISL,ioos:station:DISL:BSCA:1,2011-12-03T17:30:00Z,30.3288,-87.8293,70.71,1111122 
DISL,ioos:station:DISL:BSCA:1,2011-12-03T18:00:00Z,30.3288,-87.8293,71.12,1111122 
DISL,ioos:station:DISL:BSCA:1,2011-12-03T18:30:00Z,30.3288,-87.8293,73.69,1111122 
DISL,ioos:station:DISL:BSCA:1,2011-12-03T19:00:00Z,30.3288,-87.8293,74.71,1111122 
DISL,ioos:station:DISL:BSCA:1,2011-12-03T19:30:00Z,30.3288,-87.8293,72.42,1111122 
DISL,ioos:station:DISL:BSCA:1,2011-12-03T20:00:00Z,30.3288,-87.8293,73.33,1111122 
DISL,ioos:station:DISL:BSCA:1,2011-12-03T20:30:00Z,30.3288,-87.8293,71.64,1111122 
DISL,ioos:station:DISL:BSCA:1,2011-12-03T21:00:00Z,30.3288,-87.8293,71.27,1111122 
DISL,ioos:station:DISL:BSCA:1,2011-12-03T21:30:00Z,30.3288,-87.8293,72.89,1111122 
DISL,ioos:station:DISL:BSCA:1,2011-12-03T22:00:00Z,30.3288,-87.8293,75.23,1111122 
DISL,ioos:station:DISL:BSCA:1,2011-12-03T22:30:00Z,30.3288,-87.8293,78.47,1111122 
DISL,ioos:station:DISL:BSCA:1,2011-12-03T23:00:00Z,30.3288,-87.8293,79.46,1111122 
DISL,ioos:station:DISL:BSCA:1,2011-12-03T23:30:00Z,30.3288,-87.8293,80.4,1111122 
DISL,ioos:station:DISL:BSCA:1,2011-12-04T00:00:00Z,30.3288,-87.8293,81.6,1111122 
DISL,ioos:station:DISL:BSCA:1,2011-12-04T00:30:00Z,30.3288,-87.8293,82.8,1111122 
DISL,ioos:station:DISL:BSCA:1,2011-12-04T01:00:00Z,30.3288,-87.8293,82.5,1111122 
DISL,ioos:station:DISL:BSCA:1,2011-12-04T01:30:00Z,30.3288,-87.8293,82.3,1111122 
DISL,ioos:station:DISL:BSCA:1,2011-12-04T02:00:00Z,30.3288,-87.8293,83.4,1111122 
DISL,ioos:station:DISL:BSCA:1,2011-12-04T02:30:00Z,30.3288,-87.8293,85.1,1111122 
DISL,ioos:station:DISL:BSCA:1,2011-12-04T03:00:00Z,30.3288,-87.8293,84.8,1111122 
DISL,ioos:station:DISL:BSCA:1,2011-12-04T03:30:00Z,30.3288,-87.8293,85.9,1111122 
DISL,ioos:station:DISL:BSCA:1,2011-12-04T04:00:00Z,30.3288,-87.8293,84.4,1111122 
DISL,ioos:station:DISL:BSCA:1,2011-12-04T04:30:00Z,30.3288,-87.8293,80.7,1111122 
DISL,ioos:station:DISL:BSCA:1,2011-12-04T05:00:00Z,30.3288,-87.8293,78.02,1111122 
DISL,ioos:station:DISL:BSCA:1,2011-12-04T05:30:00Z,30.3288,-87.8293,83.6,1111122 
DISL,ioos:station:DISL:BSCA:1,2011-12-04T06:00:00Z,30.3288,-87.8293,83.9,1111122 
DISL,ioos:station:DISL:BSCA:1,2011-12-04T06:30:00Z,30.3288,-87.8293,83.5,1111122 
DISL,ioos:station:DISL:BSCA:1,2011-12-04T07:00:00Z,30.3288,-87.8293,84.5,1111122 
DISL,ioos:station:DISL:BSCA:1,2011-12-04T07:30:00Z,30.3288,-87.8293,84.9,1111122 
DISL,ioos:station:DISL:BSCA:1,2011-12-04T08:00:00Z,30.3288,-87.8293,86.2,1111122 
DISL,ioos:station:DISL:BSCA:1,2011-12-04T08:30:00Z,30.3288,-87.8293,85.8,1111122 
DISL,ioos:station:DISL:BSCA:1,2011-12-04T09:00:00Z,30.3288,-87.8293,84.3,1111122 
DISL,ioos:station:DISL:BSCA:1,2011-12-04T09:30:00Z,30.3288,-87.8293,84.9,1111122 
DISL,ioos:station:DISL:BSCA:1,2011-12-04T10:00:00Z,30.3288,-87.8293,85.8,1111122 
DISL,ioos:station:DISL:BSCA:1,2011-12-04T10:30:00Z,30.3288,-87.8293,89.1,1111122 
DISL,ioos:station:DISL:BSCA:1,2011-12-04T11:00:00Z,30.3288,-87.8293,90.1,1111122 
DISL,ioos:station:DISL:BSCA:1,2011-12-04T11:30:00Z,30.3288,-87.8293,89.9,1111122 
DISL,ioos:station:DISL:BSCA:1,2011-12-04T12:00:00Z,30.3288,-87.8293,90.4,1111122 
DISL,ioos:station:DISL:BSCA:1,2011-12-04T12:30:00Z,30.3288,-87.8293,92.0,1111122 
DISL,ioos:station:DISL:BSCA:1,2011-12-04T13:00:00Z,30.3288,-87.8293,91.8,1111122 
DISL,ioos:station:DISL:BSCA:1,2011-12-04T13:30:00Z,30.3288,-87.8293,92.7,1111122 
DISL,ioos:station:DISL:BSCA:1,2011-12-04T14:00:00Z,30.3288,-87.8293,91.7,1111122 
DISL,ioos:station:DISL:BSCA:1,2011-12-04T14:30:00Z,30.3288,-87.8293,90.3,1111122 
DISL,ioos:station:DISL:BSCA:1,2011-12-04T15:00:00Z,30.3288,-87.8293,89.8,1111122 
DISL,ioos:station:DISL:BSCA:1,2011-12-04T15:30:00Z,30.3288,-87.8293,86.3,1111122 
DISL,ioos:station:DISL:BSCA:1,2011-12-04T16:00:00Z,30.3288,-87.8293,86.1,1111122 
DISL,ioos:station:DISL:BSCA:1,2011-12-04T16:30:00Z,30.3288,-87.8293,84.3,1111122 
DISL,ioos:station:DISL:BSCA:1,2011-12-04T17:00:00Z,30.3288,-87.8293,82.5,1111122 
DISL,ioos:station:DISL:BSCA:1,2011-12-04T17:30:00Z,30.3288,-87.8293,83.3,1111122 
DISL,ioos:station:DISL:BSCA:1,2011-12-04T18:00:00Z,30.3288,-87.8293,82.0,1111122 
DISL,ioos:station:DISL:BSCA:1,2011-12-04T18:30:00Z,30.3288,-87.8293,81.4,1111122 
DISL,ioos:station:DISL:BSCA:1,2011-12-04T19:00:00Z,30.3288,-87.8293,82.4,1111122 
DISL,ioos:station:DISL:BSCA:1,2011-12-04T19:30:00Z,30.3288,-87.8293,81.3,1111122 
DISL,ioos:station:DISL:BSCA:1,2011-12-04T20:00:00Z,30.3288,-87.8293,81.2,1111122 
DISL,ioos:station:DISL:BSCA:1,2011-12-04T20:30:00Z,30.3288,-87.8293,82.8,1111122 
DISL,ioos:station:DISL:BSCA:1,2011-12-04T21:00:00Z,30.3288,-87.8293,81.2,1111122 
DISL,ioos:station:DISL:BSCA:1,2011-12-04T21:30:00Z,30.3288,-87.8293,82.6,1111122 
DISL,ioos:station:DISL:BSCA:1,2011-12-04T22:00:00Z,30.3288,-87.8293,83.1,1111122 
DISL,ioos:station:DISL:BSCA:1,2011-12-04T22:30:00Z,30.3288,-87.8293,83.6,1111122 
DISL,ioos:station:DISL:BSCA:1,2011-12-04T23:00:00Z,30.3288,-87.8293,85.0,1111122 
DISL,ioos:station:DISL:BSCA:1,2011-12-04T23:30:00Z,30.3288,-87.8293,85.7,1111122 
DISL,ioos:station:DISL:BSCA:1,2011-12-05T00:00:00Z,30.3288,-87.8293,86.6,1111122 
DISL,ioos:station:DISL:BSCA:1,2011-12-05T00:30:00Z,30.3288,-87.8293,86.9,1111122 
DISL,ioos:station:DISL:BSCA:1,2011-12-05T01:00:00Z,30.3288,-87.8293,86.7,1111122 
DISL,ioos:station:DISL:BSCA:1,2011-12-05T01:30:00Z,30.3288,-87.8293,85.9,1111122 
DISL,ioos:station:DISL:BSCA:1,2011-12-05T02:00:00Z,30.3288,-87.8293,83.4,1111122 
DISL,ioos:station:DISL:BSCA:1,2011-12-05T02:30:00Z,30.3288,-87.8293,82.7,1111122 
DISL,ioos:station:DISL:BSCA:1,2011-12-05T03:00:00Z,30.3288,-87.8293,82.1,1111122 
DISL,ioos:station:DISL:BSCA:1,2011-12-05T03:30:00Z,30.3288,-87.8293,82.2,1111122 
DISL,ioos:station:DISL:BSCA:1,2011-12-05T04:00:00Z,30.3288,-87.8293,81.8,1111122 
DISL,ioos:station:DISL:BSCA:1,2011-12-05T04:30:00Z,30.3288,-87.8293,82.3,1111122 
DISL,ioos:station:DISL:BSCA:1,2011-12-05T05:00:00Z,30.3288,-87.8293,80.9,1111122 
DISL,ioos:station:DISL:BSCA:1,2011-12-05T05:30:00Z,30.3288,-87.8293,81.8,1111122 
DISL,ioos:station:DISL:BSCA:1,2011-12-05T06:00:00Z,30.3288,-87.8293,82.1,1111122 
DISL,ioos:station:DISL:BSCA:1,2011-12-05T06:30:00Z,30.3288,-87.8293,85.4,1111122 
DISL,ioos:station:DISL:BSCA:1,2011-12-05T07:00:00Z,30.3288,-87.8293,83.5,1111122 
DISL,ioos:station:DISL:BSCA:1,2011-12-05T07:30:00Z,30.3288,-87.8293,88.5,1111122 
DISL,ioos:station:DISL:BSCA:1,2011-12-05T08:00:00Z,30.3288,-87.8293,86.2,1111122 
DISL,ioos:station:DISL:BSCA:1,2011-12-05T08:30:00Z,30.3288,-87.8293,86.1,1111122 
DISL,ioos:station:DISL:BSCA:1,2011-12-05T09:00:00Z,30.3288,-87.8293,86.5,1111122 
DISL,ioos:station:DISL:BSCA:1,2011-12-05T09:30:00Z,30.3288,-87.8293,88.7,1111122 
DISL,ioos:station:DISL:BSCA:1,2011-12-05T10:00:00Z,30.3288,-87.8293,88.0,1111122 
DISL,ioos:station:DISL:BSCA:1,2011-12-05T10:30:00Z,30.3288,-87.8293,87.0,1111122 
DISL,ioos:station:DISL:BSCA:1,2011-12-05T11:00:00Z,30.3288,-87.8293,87.9,1111122 
DISL,ioos:station:DISL:BSCA:1,2011-12-05T11:30:00Z,30.3288,-87.8293,87.6,1111122 
DISL,ioos:station:DISL:BSCA:1,2011-12-05T12:00:00Z,30.3288,-87.8293,86.9,1111122 
DISL,ioos:station:DISL:BSCA:1,2011-12-05T12:30:00Z,30.3288,-87.8293,86.0,1111122 
DISL,ioos:station:DISL:BSCA:1,2011-12-05T13:00:00Z,30.3288,-87.8293,86.9,1111122 
DISL,ioos:station:DISL:BSCA:1,2011-12-05T13:30:00Z,30.3288,-87.8293,87.9,1111122 
DISL,ioos:station:DISL:BSCA:1,2011-12-05T14:00:00Z,30.3288,-87.8293,87.5,1111122 
DISL,ioos:station:DISL:BSCA:1,2011-12-05T14:30:00Z,30.3288,-87.8293,89.1,1111122 
DISL,ioos:station:DISL:BSCA:1,2011-12-05T15:00:00Z,30.3288,-87.8293,88.2,1111122 
DISL,ioos:station:DISL:BSCA:1,2011-12-05T15:30:00Z,30.3288,-87.8293,87.0,1111122 
DISL,ioos:station:DISL:BSCA:1,2011-12-05T16:00:00Z,30.3288,-87.8293,88.6,1111122 
DISL,ioos:station:DISL:BSCA:1,2011-12-05T16:30:00Z,30.3288,-87.8293,89.8,1111122 
DISL,ioos:station:DISL:BSCA:1,2011-12-05T17:00:00Z,30.3288,-87.8293,88.1,1111122 
DISL,ioos:station:DISL:BSCA:1,2011-12-05T17:30:00Z,30.3288,-87.8293,90.4,1111122 
DISL,ioos:station:DISL:BSCA:1,2011-12-05T18:00:00Z,30.3288,-87.8293,90.4,1111122 
DISL,ioos:station:DISL:BSCA:1,2011-12-05T18:30:00Z,30.3288,-87.8293,91.8,1111122 
DISL,ioos:station:DISL:BSCA:1,2011-12-05T19:00:00Z,30.3288,-87.8293,93.7,1111122 
DISL,ioos:station:DISL:BSCA:1,2011-12-05T19:30:00Z,30.3288,-87.8293,94.8,1111122 
DISL,ioos:station:DISL:BSCA:1,2011-12-05T20:00:00Z,30.3288,-87.8293,93.1,1111122 
DISL,ioos:station:DISL:BSCA:1,2011-12-05T20:30:00Z,30.3288,-87.8293,93.9,1111122 
DISL,ioos:station:DISL:BSCA:1,2011-12-05T21:00:00Z,30.3288,-87.8293,92.1,1111122 
DISL,ioos:station:DISL:BSCA:1,2011-12-05T21:30:00Z,30.3288,-87.8293,95.1,1111122 
DISL,ioos:station:DISL:BSCA:1,2011-12-05T22:00:00Z,30.3288,-87.8293,93.0,1111122 
DISL,ioos:station:DISL:BSCA:1,2011-12-05T22:30:00Z,30.3288,-87.8293,94.7,1111122 
DISL,ioos:station:DISL:BSCA:1,2011-12-05T23:00:00Z,30.3288,-87.8293,92.3,1111122 
DISL,ioos:station:DISL:BSCA:1,2011-12-05T23:30:00Z,30.3288,-87.8293,93.2,1111122 
DISL,ioos:station:DISL:BSCA:1,2011-12-06T00:00:00Z,30.3288,-87.8293,94.2,1111122 
DISL,ioos:station:DISL:BSCA:1,2011-12-06T00:30:00Z,30.3288,-87.8293,95.3,1111122 
DISL,ioos:station:DISL:BSCA:1,2011-12-06T01:00:00Z,30.3288,-87.8293,96.1,1111122 
DISL,ioos:station:DISL:BSCA:1,2011-12-06T01:30:00Z,30.3288,-87.8293,96.1,1111122 
DISL,ioos:station:DISL:BSCA:1,2011-12-06T02:00:00Z,30.3288,-87.8293,95.7,1111122 
DISL,ioos:station:DISL:BSCA:1,2011-12-06T02:30:00Z,30.3288,-87.8293,96.4,1111122 
DISL,ioos:station:DISL:BSCA:1,2011-12-06T03:00:00Z,30.3288,-87.8293,96.5,1111122 
DISL,ioos:station:DISL:BSCA:1,2011-12-06T03:30:00Z,30.3288,-87.8293,96.5,1111122 
DISL,ioos:station:DISL:BSCA:1,2011-12-06T04:00:00Z,30.3288,-87.8293,96.6,1111122 
DISL,ioos:station:DISL:BSCA:1,2011-12-06T04:30:00Z,30.3288,-87.8293,97.3,1111122 
DISL,ioos:station:DISL:BSCA:1,2011-12-06T05:00:00Z,30.3288,-87.8293,97.4,1111122 
DISL,ioos:station:DISL:BSCA:1,2011-12-06T05:30:00Z,30.3288,-87.8293,97.2,1111122 
DISL,ioos:station:DISL:BSCA:1,2011-12-06T06:00:00Z,30.3288,-87.8293,96.1,1111122 
DISL,ioos:station:DISL:BSCA:1,2011-12-06T06:30:00Z,30.3288,-87.8293,95.9,1111122 
DISL,ioos:station:DISL:BSCA:1,2011-12-06T07:00:00Z,30.3288,-87.8293,95.5,1111122 
DISL,ioos:station:DISL:BSCA:1,2011-12-06T07:30:00Z,30.3288,-87.8293,95.7,1111122 
DISL,ioos:station:DISL:BSCA:1,2011-12-06T08:00:00Z,30.3288,-87.8293,95.5,1111122 
DISL,ioos:station:DISL:BSCA:1,2011-12-06T08:30:00Z,30.3288,-87.8293,96.1,1111122 
DISL,ioos:station:DISL:BSCA:1,2011-12-06T09:00:00Z,30.3288,-87.8293,96.8,1111122 
DISL,ioos:station:DISL:BSCA:1,2011-12-06T09:30:00Z,30.3288,-87.8293,96.9,1111122 
DISL,ioos:station:DISL:BSCA:1,2011-12-06T10:00:00Z,30.3288,-87.8293,96.7,1111122 
DISL,ioos:station:DISL:BSCA:1,2011-12-06T10:30:00Z,30.3288,-87.8293,97.0,1111122 
DISL,ioos:station:DISL:BSCA:1,2011-12-06T11:00:00Z,30.3288,-87.8293,96.6,1111122 
DISL,ioos:station:DISL:BSCA:1,2011-12-06T11:30:00Z,30.3288,-87.8293,97.4,1111122 
DISL,ioos:station:DISL:BSCA:1,2011-12-06T12:00:00Z,30.3288,-87.8293,97.4,1111122 
DISL,ioos:station:DISL:BSCA:1,2011-12-06T12:30:00Z,30.3288,-87.8293,97.0,1111122 
DISL,ioos:station:DISL:BSCA:1,2011-12-06T13:00:00Z,30.3288,-87.8293,95.9,1111122 
DISL,ioos:station:DISL:BSCA:1,2011-12-06T13:30:00Z,30.3288,-87.8293,95.2,1111122 
DISL,ioos:station:DISL:BSCA:1,2011-12-06T14:00:00Z,30.3288,-87.8293,96.6,1111122 
DISL,ioos:station:DISL:BSCA:1,2011-12-06T14:30:00Z,30.3288,-87.8293,96.9,1111122 
DISL,ioos:station:DISL:BSCA:1,2011-12-06T15:00:00Z,30.3288,-87.8293,97.4,1111122 
DISL,ioos:station:DISL:BSCA:1,2011-12-06T15:30:00Z,30.3288,-87.8293,97.6,1111122 
DISL,ioos:station:DISL:BSCA:1,2011-12-06T16:00:00Z,30.3288,-87.8293,97.6,1111122 
DISL,ioos:station:DISL:BSCA:1,2011-12-06T16:30:00Z,30.3288,-87.8293,97.5,1111122 
DISL,ioos:station:DISL:BSCA:1,2011-12-06T17:00:00Z,30.3288,-87.8293,97.5,1111122 
DISL,ioos:station:DISL:BSCA:1,2011-12-06T17:30:00Z,30.3288,-87.8293,96.7,1111122 
DISL,ioos:station:DISL:BSCA:1,2011-12-06T18:00:00Z,30.3288,-87.8293,96.8,1111122 
DISL,ioos:station:DISL:BSCA:1,2011-12-06T18:30:00Z,30.3288,-87.8293,95.8,1111122 
DISL,ioos:station:DISL:BSCA:1,2011-12-06T19:00:00Z,30.3288,-87.8293,96.0,1111122 
DISL,ioos:station:DISL:BSCA:1,2011-12-06T19:30:00Z,30.3288,-87.8293,95.4,1111122 
DISL,ioos:station:DISL:BSCA:1,2011-12-06T20:00:00Z,30.3288,-87.8293,94.3,1111122 
DISL,ioos:station:DISL:BSCA:1,2011-12-06T20:30:00Z,30.3288,-87.8293,93.5,1111122 
DISL,ioos:station:DISL:BSCA:1,2011-12-06T21:00:00Z,30.3288,-87.8293,88.9,1111122 
DISL,ioos:station:DISL:BSCA:1,2011-12-06T21:30:00Z,30.3288,-87.8293,94.5,1111122 
DISL,ioos:station:DISL:BSCA:1,2011-12-06T22:00:00Z,30.3288,-87.8293,92.1,1111122 
DISL,ioos:station:DISL:BSCA:1,2011-12-06T22:30:00Z,30.3288,-87.8293,92.8,1111122 
DISL,ioos:station:DISL:BSCA:1,2011-12-06T23:00:00Z,30.3288,-87.8293,92.6,1111122 
DISL,ioos:station:DISL:BSCA:1,2011-12-06T23:30:00Z,30.3288,-87.8293,88.1,1111122 
DISL,ioos:station:DISL:BSCA:1,2011-12-07T00:00:00Z,30.3288,-87.8293,88.6,1111122 
DISL,ioos:station:DISL:BSCA:1,2011-12-07T00:30:00Z,30.3288,-87.8293,88.4,1111122 